sat.trackr.live / text

‹ back to catalog

STARLINK-3567

NORAD 51871 · 2022-022V

PAYLOAD ACTIVE UNKNOWN

§ Identity

Operator
Country
US
Launch date
2022-03-03
Launch site
AFETR
Launch vehicle
Mass (kg)
RCS (m²)

Purposes: comms

External: N2YO · Heavens-Above · Gunter

§ Orbital elements

Epoch: 2026-09-19T13:50:41.669952Z

Period
93.85 min
Inclination
53.1601°
Eccentricity
0.0001148
Mean motion
15.34387028 rev/d
Perigee alt
462.0 km
Apogee alt
463.5 km
Semi-major
6,840.9 km
B*
2.2789e-5
RAAN
208.3764°
Arg perigee
99.0371°
Mean anomaly
261.0762°
Rev number
25,263

§ Raw data

STARLINK-35671 51871U 22022V   26262.57687118  .00000394  00000+0  22789-4 0  99982 51871  53.1601 208.3764 0001148  99.0371 261.0762 15.34387028252636

JSON: /api/v1/satellites/51871 · /tle

For live sub-satellite position, see the globe view (requires WebGL).

§ Visibility from observer

Set your observer location to see the next 7 days of passes ≥ 10°. The values pass through the URL so the page stays shareable.

No JS? Fill the form by hand. The geolocation button needs JavaScript.